Voltar ao catálogo

FENGYUN 1C DEB

AtivoPO
NORAD 30312·DEBRIS·🇨🇳 China

Lançado May 10, 1999 de Taiyuan Satellite Launch Center

Loading…

Próximas Passagens (próximas 24 horas)

TLE

AtualizadoSource: Space-Track

Época: Sep 14, 2026, 06:13 UTC

1 30312U 99025ZZ  26257.25955259  .00004895  00000-0  12787-2 0  9991
2 30312  98.8593 354.7497 0011506 110.3722 275.2942 14.49862202 19077

Acompanhe FENGYUN 1C DEB em tempo real com AllMySat

Download on the App Store